Vertical_Velocity
30 -4 5 7 -3 -0 0 -1 0 1 -2 1 -3 -2 0 -2 -0 2 0 -3 -2 -1
12 19 9 7 4 6 -8 -6 -2 4 10 6 3 6 3 2 -2 -0 -3 -4 -2 -1
4 23 19 6 19 18 28 17 8 10 4 1 5 -3 -3 -3 -2 -2 -3 1 -3 -1
10 23 7 2 8 -1 2 -1 4 2 4 2 -2 -2 1 -4 0 0 1 -0 -2 -2
4 0 5 -1 6 7 4 3 12 5 5 -7 -2 0 -4 -5 -0 3 1 -2 -4 -1
-6 -7 -11 3 8 1 -5 -17 -10 1 -1 -5 -1 -1 1 -0 -3 -2 -1 -0 -1 2
0 -1 1 -10 -1 -12 -1 27 -3 7 -2 -3 -5 2 0 1 -6 1 0 -2 -1 -1
7 -4 3 5 -7 -3 9 10 3 -2 -4 -6 -2 1 4 -0 0 -1 -3 -2 1 2
5 -2 19 14 18 17 3 -1 6 -3 2 -2 -4 4 3 -3 -4 -2 0 1 -3 -3
2 6 6 15 19 14 4 -1 -4 4 -2 -3 2 2 -1 -2 0 -0 0 2 2 2
9 5 8 4 1 8 2 3 5 -2 -1 -1 0 2 -0 -2 1 1 -1 3 3 1
2 3 -2 0 3 3 -0 -3 -3 -0 -0 -1 1 -1 -2 1 1 1 -4 -1 -1 -2
5 0 -2 -3 -3 -5 -3 -1 2 1 0 2 -2 -1 -2 -5 -0 -1 4 3 -5 -8
-1 2 3 -0 -1 -3 -1 -0 -2 0 -2 1 1 -1 -1 0 -4 2 -7 1 1 -7
Height
5702 5706 5712 5718 5722 5726 5730 5734 5738 5739 5740 5744 5746 5747 5748 5749 5748 5748 5746 5746 5745 5744
5696 5699 5704 5708 5714 5718 5721 5724 5727 5729 5729 5731 5735 5735 5736 5738 5741 5740 5738 5738 5735 5734
5686 5694 5697 5700 5704 5709 5712 5714 5717 5718 5720 5720 5722 5724 5727 5732 5732 5732 5730 5727 5725 5721
5680 5687 5690 5691 5695 5697 5701 5705 5707 5711 5712 5714 5716 5716 5716 5722 5722 5721 5717 5713 5711 5708
5670 5675 5682 5686 5687 5690 5695 5698 5699 5702 5704 5708 5707 5705 5707 5709 5708 5707 5703 5700 5696 5693
5661 5666 5675 5677 5678 5682 5685 5690 5691 5693 5695 5696 5696 5694 5695 5697 5695 5692 5689 5686 5681 5678
5656 5658 5663 5669 5673 5673 5675 5678 5679 5679 5681 5683 5684 5683 5683 5683 5681 5678 5674 5670 5666 5663
5648 5653 5656 5658 5662 5667 5668 5668 5672 5672 5672 5673 5673 5673 5670 5669 5666 5663 5659 5655 5652 5647
5641 5645 5649 5654 5655 5655 5656 5659 5658 5661 5660 5662 5661 5659 5657 5655 5652 5648 5645 5641 5637 5632
5632 5636 5641 5642 5643 5646 5646 5645 5648 5649 5649 5648 5647 5645 5643 5640 5638 5635 5631 5627 5621 5615
5622 5626 5629 5630 5630 5632 5634 5636 5635 5636 5636 5634 5633 5632 5630 5627 5624 5620 5615 5610 5605 5599
5613 5615 5618 5621 5621 5621 5622 5624 5625 5624 5623 5622 5622 5619 5616 5613 5610 5606 5601 5595 5588 5583
5605 5607 5610 5612 5613 5613 5613 5614 5614 5614 5613 5610 5608 5606 5603 5599 5597 5589 5585 5579 5573 5567
5596 5598 5599 5601 5602 5603 5604 5604 5603 5602 5600 5598 5595 5592 5588 5584 5580 5576 5570 5563 5557 5551